[[{"header":{"parameterUnit":"m.s-1","parameterCategory":1,"la1":30.2991,"la2":30.254,"lo1":-89.0895,"lo2":-89.0444,"dy":0.0017,"dx":0.0017,"nx":28,"ny":28,"refTime":"2025-12-04T09:00:00:Z","depth":0,"parameterNumber":2,"parameterNumberName":"U-component_of_WINDS"},"data":[0,0,0,0,0,0,0,0,0,0,0,0,0,0,0,0,0,0,0,0,0,0,0,0,0,0,0,0,0,0,0,0,0,0,0,0,0,0,0,0,0,0,0,0,0,0,0,0,0,0,0,0,0,0,0,0,0,0,0.2496,0.2496,0,0.2477,0.2477,0.2476,0.2477,0.2477,0.2477,0.2478,0.2456,0.2455,0.2455,0,0,0,0,0,0,0,0,0,0,0,0,0,0.2532,0.2531,0.2496,0.2496,0.2495,0.2477,0.2477,0.2476,0.2477,0.2477,0.2477,0.2478,0.2456,0.2456,0.2455,0,0,0,0,0,0,0,0,0,0,0,0,0,0.2515,0.2531,0.2496,0.2493,0.2493,0.2477,0.2476,0.2476,0.2477,0.2477,0.2477,0.2478,0.2457,0.2456,0.2454,0.2439,0,0,0.2451,0.245,0,0,0,0,0,0,0,0,0.2516,0.2513,0.2494,0.2494,0.2493,0.248,0.2481,0.2464,0.2477,0.2483,0.2478,0.2478,0.2464,0.2462,0.2457,0.2438,0.2437,0.2451,0.245,0.2449,0.2449,0,0,0,0,0,0,0,0.2517,0.2514,0.2488,0.2494,0.2493,0.2493,0.2491,0.2478,0.2471,0.2482,0.2482,0.248,0.2463,0.2458,0.2457,0.2437,0.2451,0.2449,0.2449,0.2448,0.2404,0.2403,0,0,0,0,0,0,0.2519,0.2515,0.2489,0.2488,0.2506,0.2492,0.249,0.2483,0.2471,0.247,0.248,0.248,0.246,0.2458,0.2456,0.2437,0.2449,0.2448,0.2447,0.2404,0.2404,0.2403,0,0,0,0,0,0,0.2519,0.2516,0.249,0.2501,0.2498,0.2491,0.2484,0.2483,0.2478,0.2469,0.2468,0.2476,0.2461,0.2458,0.2443,0.2436,0.2448,0.2446,0.2405,0.2404,0.2404,0.2399,0,0,0,0,0,0,0.252,0.2517,0.2511,0.2501,0.2497,0.2478,0.2483,0.2482,0.2476,0.2476,0.2466,0.2464,0.2461,0.2445,0.2442,0.2435,0.2446,0.2405,0.2405,0.2404,0.24,0.2398,0.2397,0,0,0,0,0,0.2522,0.251,0.251,0.2507,0.249,0.2477,0.2475,0.2472,0.2476,0.247,0.2464,0.2464,0.2438,0.2444,0.244,0.2433,0.2406,0.2405,0.2404,0.24,0.2399,0.2397,0,0,0,0,0,0,0.2518,0.2508,0.2509,0.2494,0.2486,0.2477,0.247,0.247,0.246,0.2461,0.2457,0.2455,0.244,0.2435,0.2442,0.2417,0.2422,0.2421,0.2421,0.2419,0.2418,0.2419,0.2444,0,0,0,0,0,0.2516,0.2506,0.2498,0.2486,0.2482,0.2477,0.2471,0.2469,0.2461,0.2457,0.2451,0.2442,0.2432,0.2425,0.2416,0.2399,0.2397,0.2392,0.2391,0.239,0.2388,0.238,0.2378,0.24,0.24,0.24,0,0,0.251,0.2504,0.2498,0.2485,0.2479,0.2469,0.2474,0.2463,0.2456,0.2456,0.2442,0.2437,0.2427,0.2412,0.2405,0.2407,0.2382,0.2389,0.2388,0.2387,0.2378,0.2376,0.2374,0.2399,0.2399,0.24,0,0,0.2495,0.2489,0.2478,0.2473,0.2464,0.246,0.2458,0.2449,0.2446,0.2432,0.2432,0.2423,0.2405,0.2398,0.2393,0.2376,0.2376,0.2373,0.2366,0.2357,0.2355,0.2354,0.2348,0.2346,0.2371,0.2371,0.2371,0,0.2489,0.2475,0.2473,0.2462,0.2456,0.2457,0.2445,0.244,0.2428,0.2424,0.2427,0.2405,0.2398,0.2382,0.2378,0.2373,0.237,0.2374,0.2356,0.2354,0.2353,0.2347,0.2345,0.2371,0.2371,0.2371,0.2371,0,0.2468,0.2458,0.245,0.244,0.2433,0.2422,0.2418,0.2411,0.241,0.2407,0.2393,0.2385,0.2374,0.237,0.2368,0.2353,0.2355,0.2357,0.2362,0.235,0.2345,0.2343,0.2371,0.2371,0.2371,0.2371,0,0,0.2449,0.2438,0.2435,0.2431,0.2421,0.2413,0.2403,0.2392,0.2387,0.2379,0.2369,0.2355,0.2357,0.2351,0.2349,0.2341,0.2329,0.2344,0.2344,0.2342,0.2311,0.2309,0.2307,0.2329,0.2329,0.2328,0.2312,0,0.2433,0.2414,0.2412,0.2396,0.2386,0.2387,0.2378,0.2371,0.2367,0.2359,0.2354,0.2344,0.2348,0.2344,0.2337,0.2332,0.2322,0.2333,0.232,0.2319,0.2322,0.2304,0.2302,0.2286,0.231,0.2309,0.2309,0,0.2411,0.2404,0.2386,0.2379,0.2375,0.2366,0.2357,0.2349,0.2341,0.2339,0.2332,0.2331,0.232,0.2326,0.231,0.2317,0.2312,0.2309,0.2308,0.2306,0.2313,0.2301,0.2282,0.2279,0.2306,0.2306,0.2306,0,0.2399,0.2384,0.2372,0.2368,0.2359,0.2353,0.2349,0.2342,0.2336,0.2328,0.2324,0.2314,0.2309,0.2301,0.2297,0.2302,0.2282,0.2288,0.2279,0.2279,0.2274,0.2275,0.2253,0.2272,0.2272,0.2272,0.2272,0,0.2381,0.237,0.2366,0.2359,0.2347,0.2345,0.2333,0.2329,0.2323,0.2314,0.2314,0.2306,0.2302,0.2293,0.229,0.2278,0.2275,0.2273,0.2272,0.2273,0.2273,0.2268,0.2269,0.2271,0.2271,0.2271,0.2272,0,0.2365,0.2362,0.2349,0.2342,0.234,0.2331,0.2325,0.2317,0.2314,0.2303,0.2301,0.2295,0.2285,0.2281,0.2268,0.2267,0.2252,0.2252,0.2255,0.2254,0.2246,0.2247,0.2221,0.2217,0.2238,0.2238,0.2238,0,0.2353,0.2345,0.2337,0.2332,0.2328,0.2319,0.2313,0.2311,0.2305,0.2296,0.229,0.228,0.2272,0.2255,0.225,0.224,0.224,0.2232,0.2238,0.2239,0.2239,0.224,0.2239,0.223,0.223,0.223,0.223,0,0.2333,0.2332,0.2324,0.2316,0.2309,0.2302,0.2295,0.2291,0.2288,0.2281,0.2271,0.2265,0.2252,0.2242,0.2232,0.2228,0.2228,0.2228,0.2225,0.2225,0.2227,0.2226,0.2251,0.2228,0.2228,0.2228,0.2228,0.2228,0.2318,0.2311,0.2305,0.2296,0.2291,0.2285,0.2278,0.2274,0.2266,0.2256,0.2255,0.2244,0.2237,0.2224,0.2219,0.2211,0.2213,0.2209,0.2208,0.2207,0.2206,0.2229,0.2209,0.2209,0.2209,0.2209,0.2209,0,0.2297,0.2294,0.2286,0.2277,0.227,0.2272,0.2265,0.2259,0.2249,0.2243,0.2235,0.2224,0.2214,0.2209,0.2199,0.2193,0.2193,0.2191,0.2191,0.219,0.2205,0.2208,0.2191,0.2191,0.2191,0.2191,0.2191,0.2191,0.2286,0.2274,0.2273,0.2258,0.2255,0.2244,0.224,0.2235,0.223,0.2217,0.2209,0.2206,0.22,0.219,0.2182,0.218,0.2176,0.2174,0.2172,0.2187,0.2189,0.219,0.2193,0.2173,0.2173,0.2158,0.2158,0.2157]},{"header":{"parameterUnit":"m.s-1","parameterCategory":1,"la1":30.2991,"la2":30.254,"lo1":-89.0895,"lo2":-89.0444,"dy":0.0017,"dx":0.0017,"nx":28,"ny":28,"refTime":"2025-12-04T09:00:00:Z","depth":0,"parameterNumber":3,"parameterNumberName":"V-component_of_WINDS"},"data":[0,0,0,0,0,0,0,0,0,0,0,0,0,0,0,0,0,0,0,0,0,0,0,0,0,0,0,0,0,0,0,0,0,0,0,0,0,0,0,0,0,0,0,0,0,0,0,0,0,0,0,0,0,0,0,0,0,0,-1.31,-1.31,0,-1.3079,-1.3078,-1.3078,-1.3065,-1.3065,-1.3065,-1.3065,-1.3043,-1.3043,-1.3042,0,0,0,0,0,0,0,0,0,0,0,0,0,-1.313,-1.3129,-1.31,-1.31,-1.3099,-1.3079,-1.3078,-1.3078,-1.3065,-1.3065,-1.3065,-1.3065,-1.3043,-1.3043,-1.3042,0,0,0,0,0,0,0,0,0,0,0,0,0,-1.3113,-1.3129,-1.31,-1.309,-1.3089,-1.3079,-1.3078,-1.3078,-1.3065,-1.3065,-1.3065,-1.3065,-1.3044,-1.3043,-1.3042,-1.3039,0,0,-1.304,-1.304,0,0,0,0,0,0,0,0,-1.3114,-1.3112,-1.3092,-1.3091,-1.309,-1.3074,-1.3081,-1.3065,-1.3065,-1.3074,-1.3065,-1.3065,-1.3054,-1.3052,-1.3048,-1.3038,-1.3037,-1.304,-1.3039,-1.3039,-1.3039,0,0,0,0,0,0,0,-1.3115,-1.3113,-1.3091,-1.3092,-1.309,-1.3087,-1.3085,-1.3078,-1.3065,-1.3073,-1.3072,-1.307,-1.3053,-1.3049,-1.3048,-1.3037,-1.304,-1.3039,-1.3039,-1.3038,-1.3023,-1.3023,0,0,0,0,0,0,-1.3118,-1.3114,-1.3092,-1.3091,-1.3102,-1.3087,-1.3084,-1.3079,-1.3065,-1.3063,-1.307,-1.307,-1.305,-1.3049,-1.3047,-1.3042,-1.3039,-1.3038,-1.3038,-1.3023,-1.3023,-1.3023,0,0,0,0,0,0,-1.3119,-1.3116,-1.3093,-1.3102,-1.3099,-1.3086,-1.3081,-1.3079,-1.3075,-1.3062,-1.306,-1.3068,-1.305,-1.3048,-1.3041,-1.3041,-1.3038,-1.3037,-1.3023,-1.3023,-1.3023,-1.3033,0,0,0,0,0,0,-1.312,-1.3117,-1.3115,-1.3102,-1.3099,-1.3088,-1.3081,-1.3079,-1.3074,-1.3073,-1.306,-1.3058,-1.305,-1.3042,-1.304,-1.304,-1.3037,-1.3023,-1.3023,-1.3023,-1.3033,-1.3034,-1.3034,0,0,0,0,0,-1.3121,-1.3119,-1.3115,-1.3113,-1.3097,-1.3088,-1.3086,-1.3076,-1.3074,-1.3072,-1.3064,-1.3058,-1.3042,-1.3042,-1.3039,-1.3039,-1.3023,-1.3023,-1.3023,-1.3032,-1.3033,-1.3034,0,0,0,0,0,0,-1.3133,-1.3117,-1.3113,-1.3107,-1.3099,-1.3085,-1.3083,-1.3078,-1.307,-1.3069,-1.3059,-1.3056,-1.305,-1.3044,-1.3044,-1.3035,-1.3032,-1.3031,-1.3039,-1.304,-1.3041,-1.3042,-1.3036,0,0,0,0,0,-1.3135,-1.3129,-1.3115,-1.3112,-1.3108,-1.3096,-1.3092,-1.3086,-1.3077,-1.3073,-1.3064,-1.3056,-1.3049,-1.3044,-1.3037,-1.3032,-1.3029,-1.303,-1.3031,-1.3032,-1.3032,-1.3028,-1.3028,-1.3024,-1.3024,-1.3024,0,0,-1.3139,-1.313,-1.3126,-1.3114,-1.3107,-1.31,-1.3093,-1.3087,-1.3082,-1.3072,-1.3065,-1.3058,-1.3048,-1.3042,-1.3039,-1.3037,-1.3032,-1.3032,-1.3033,-1.3032,-1.3028,-1.3029,-1.3029,-1.3024,-1.3024,-1.3024,0,0,-1.3143,-1.3136,-1.3131,-1.3124,-1.3113,-1.3105,-1.3104,-1.3092,-1.3087,-1.308,-1.3072,-1.3066,-1.3054,-1.3047,-1.3042,-1.3043,-1.3037,-1.3041,-1.3044,-1.3041,-1.3041,-1.3042,-1.3041,-1.3042,-1.304,-1.304,-1.304,0,-1.3149,-1.314,-1.313,-1.3124,-1.3118,-1.3108,-1.3104,-1.3097,-1.3085,-1.3081,-1.3079,-1.3063,-1.3056,-1.3048,-1.3048,-1.3044,-1.3042,-1.3042,-1.3042,-1.3042,-1.3042,-1.3042,-1.3042,-1.3041,-1.3041,-1.3041,-1.3041,0,-1.3148,-1.3141,-1.3139,-1.3126,-1.3121,-1.3116,-1.3105,-1.31,-1.3094,-1.3087,-1.3079,-1.307,-1.306,-1.3058,-1.3052,-1.3049,-1.3048,-1.3044,-1.304,-1.3043,-1.3043,-1.3043,-1.3042,-1.3041,-1.3041,-1.3041,0,0,-1.3159,-1.3141,-1.314,-1.3134,-1.3121,-1.3116,-1.311,-1.31,-1.3096,-1.3088,-1.3083,-1.3073,-1.3069,-1.3063,-1.3056,-1.3053,-1.3054,-1.305,-1.3049,-1.3051,-1.3049,-1.3052,-1.3052,-1.305,-1.305,-1.305,-1.305,0,-1.316,-1.3149,-1.314,-1.3132,-1.3126,-1.3116,-1.3111,-1.3103,-1.3096,-1.3089,-1.3082,-1.3074,-1.307,-1.3066,-1.3063,-1.3055,-1.3054,-1.3055,-1.3045,-1.3045,-1.3048,-1.3052,-1.3055,-1.3055,-1.305,-1.305,-1.305,0,-1.3161,-1.3152,-1.3144,-1.3131,-1.3128,-1.3124,-1.3114,-1.3108,-1.3098,-1.3093,-1.3087,-1.308,-1.3073,-1.307,-1.3061,-1.3061,-1.3057,-1.3052,-1.3052,-1.3051,-1.3047,-1.305,-1.3055,-1.3055,-1.305,-1.305,-1.305,0,-1.3169,-1.3156,-1.3149,-1.3144,-1.3129,-1.3126,-1.312,-1.311,-1.3105,-1.3096,-1.3093,-1.3084,-1.3079,-1.3072,-1.3063,-1.3061,-1.3054,-1.305,-1.305,-1.305,-1.3048,-1.3048,-1.3052,-1.3046,-1.3046,-1.3046,-1.3046,0,-1.3172,-1.3167,-1.3152,-1.3148,-1.3142,-1.3132,-1.3126,-1.3119,-1.311,-1.3104,-1.3096,-1.3091,-1.3079,-1.3072,-1.3065,-1.3058,-1.3056,-1.3052,-1.305,-1.3052,-1.3053,-1.3049,-1.3049,-1.3046,-1.3046,-1.3046,-1.3046,0,-1.318,-1.317,-1.3161,-1.3148,-1.3144,-1.3141,-1.3129,-1.3125,-1.3117,-1.311,-1.3107,-1.3096,-1.3087,-1.3078,-1.3066,-1.3061,-1.3055,-1.3052,-1.3058,-1.3057,-1.3056,-1.3056,-1.3057,-1.3057,-1.3052,-1.3052,-1.3052,0,-1.3182,-1.3178,-1.3164,-1.3159,-1.3153,-1.3145,-1.314,-1.3129,-1.3124,-1.3112,-1.3109,-1.31,-1.3092,-1.3079,-1.307,-1.3061,-1.3058,-1.3059,-1.3056,-1.3059,-1.3057,-1.3057,-1.3057,-1.3059,-1.3059,-1.3059,-1.306,0,-1.3186,-1.3181,-1.3173,-1.3164,-1.3157,-1.3149,-1.3141,-1.3138,-1.3126,-1.312,-1.3111,-1.3105,-1.3093,-1.3084,-1.3074,-1.3068,-1.3061,-1.306,-1.306,-1.3062,-1.3065,-1.3063,-1.3059,-1.306,-1.306,-1.306,-1.306,-1.306,-1.3191,-1.3187,-1.3176,-1.3167,-1.316,-1.3152,-1.3147,-1.3139,-1.3131,-1.3121,-1.3115,-1.3106,-1.3096,-1.3082,-1.3076,-1.3069,-1.3067,-1.3066,-1.3065,-1.3065,-1.3066,-1.3067,-1.3067,-1.3067,-1.3067,-1.3067,-1.3067,0,-1.3194,-1.3187,-1.3179,-1.3168,-1.3161,-1.3156,-1.3146,-1.3141,-1.3133,-1.3124,-1.3117,-1.3106,-1.3098,-1.3087,-1.3078,-1.3074,-1.3071,-1.3072,-1.3072,-1.3071,-1.3068,-1.307,-1.3075,-1.3075,-1.3075,-1.3075,-1.3075,-1.3075,-1.3196,-1.3188,-1.3182,-1.317,-1.3163,-1.3154,-1.3149,-1.3142,-1.3135,-1.3124,-1.3116,-1.3109,-1.31,-1.309,-1.3081,-1.3079,-1.3075,-1.3077,-1.3073,-1.3071,-1.3071,-1.307,-1.3071,-1.3077,-1.3077,-1.3076,-1.3076,-1.3076]}]]